CW3077 Weather Reports


Display with metric or nautical units.
time (UTC)temp
F
wind
direction
speed
MPH
gust
MPH
rain 1hr
in
rain 24hr
in
rain mn
in
humidity
%
barometer
mb
20260903011516 89 135 3.0 5.0 0.00 0.01 0.01 52 1012.4
20260903011036 89 158 3.0 6.0 0.00 0.01 0.01 53 1012.4
20260903010515 89 135 2.0 4.0 0.00 0.01 0.01 53 1012.4
20260903010016 90 135 1.0 3.0 0.01 0.01 0.01 53 1012.4
20260903005515 90 135 2.0 4.0 0.01 0.01 0.01 53 1012.4
20260903005016 90 135 2.0 4.0 0.01 0.01 0.01 54 1012.4
20260903004516 90 158 3.0 5.0 0.01 0.01 0.01 54 1012.4
20260903004015 90 158 2.0 5.0 0.01 0.01 0.01 54 1012.3
20260903003516 89 158 2.0 4.0 0.01 0.01 0.01 55 1012.2
20260903003016 89 158 2.0 6.0 0.01 0.01 0.01 57 1012.4
20260903002535 89 180 2.0 7.0 0.01 0.01 0.01 58 1012.4
20260903002015 88 180 2.0 4.0 0.01 0.01 0.01 61 1012.3
20260903001516 88 0.0 1.0 0.01 0.01 0.01 63 1012.1
20260903001015 88 180 1.0 3.0 0.01 0.01 0.01 63 1012.0
20260903000515 87 0.0 2.0 0.01 0.01 0.01 63 1012.2
20260903000036 86 180 1.0 2.0 0.00 0.00 0.00 63 1012.0
20260902235515 86 180 1.0 3.0 0.00 0.00 0.00 67 1012.0
20260902235016 86 180 2.0 4.0 0.00 0.00 0.00 66 1012.0
20260902234535 87 248 3.0 6.0 0.00 0.00 0.00 66 1012.2
20260902234015 88 293 2.0 8.0 0.00 0.00 0.00 61 1012.3
20260902233515 87 338 2.0 4.0 0.00 0.00 0.00 58 1012.3
20260902233035 89 338 4.0 7.0 0.00 0.00 0.00 59 1012.3
20260902232515 89 315 4.0 9.0 0.00 0.00 0.00 58 1012.3
20260902232016 91 315 3.0 9.0 0.00 0.00 0.00 55 1012.5
20260902231515 91 293 2.0 5.0 0.00 0.00 0.00 54 1012.5
20260902231016 89 315 4.0 12.0 0.00 0.00 0.00 56 1012.4
20260902230515 90 270 4.0 9.0 0.00 0.00 0.00 53 1012.5
20260902230035 91 293 7.0 17.0 0.00 0.00 0.00 52 1012.5
20260902225515 93 270 5.0 12.0 0.00 0.00 0.00 49 1012.5
20260902225017 93 270 5.0 11.0 0.00 0.00 0.00 48 1012.5
20260902224515 94 270 5.0 12.0 0.00 0.00 0.00 47 1012.4
20260902224015 95 270 3.0 5.0 0.00 0.00 0.00 46 1012.4
20260902223515 96 23 2.0 5.0 0.00 0.00 0.00 46 1012.5
20260902223015 97 315 2.0 5.0 0.00 0.00 0.00 45 1012.5
20260902222515 97 293 2.0 4.0 0.00 0.00 0.00 43 1012.4
20260902222015 97 293 1.0 3.0 0.00 0.00 0.00 43 1012.3
20260902221515 97 293 1.0 2.0 0.00 0.00 0.00 41 1012.4
20260902221015 98 293 1.0 3.0 0.00 0.00 0.00 41 1012.5
20260902220515 98 0.0 2.0 0.00 0.00 0.00 41 1012.4
20260902220015 98 293 1.0 3.0 0.00 0.00 0.00 40 1012.5
20260902215515 98 293 1.0 4.0 0.00 0.00 0.00 41 1012.5
20260902215015 99 293 1.0 3.0 0.00 0.00 0.00 40 1012.7
20260902214515 99 293 2.0 5.0 0.00 0.00 0.00 41 1012.6
20260902214015 100 68 2.0 5.0 0.00 0.00 0.00 39 1012.6
20260902213515 101 45 4.0 8.0 0.00 0.00 0.00 38 1012.7
20260902213015 101 315 2.0 6.0 0.00 0.00 0.00 38 1012.7
20260902212515 101 225 2.0 4.0 0.00 0.00 0.00 37 1012.7
20260902212015 102 180 2.0 5.0 0.00 0.00 0.00 38 1012.7
20260902211515 102 180 2.0 3.0 0.00 0.00 0.00 38 1012.8
20260902211015 102 225 2.0 6.0 0.00 0.00 0.00 38 1012.8
20260902210515 101 45 1.0 5.0 0.00 0.00 0.00 39 1012.9
20260902210015 102 45 3.0 6.0 0.00 0.00 0.00 36 1012.9
20260902205515 101 113 3.0 10.0 0.00 0.00 0.00 38 1012.9
20260902205015 101 45 3.0 8.0 0.00 0.00 0.00 37 1013.1
20260902204515 101 23 4.0 9.0 0.00 0.00 0.00 38 1013.1
20260902204015 99 23 2.0 5.0 0.00 0.00 0.00 42 1013.1
20260902203515 99 23 3.0 6.0 0.00 0.00 0.00 41 1013.2
20260902203015 99 338 3.0 8.0 0.00 0.00 0.00 40 1013.2
20260902202535 98 315 2.0 6.0 0.00 0.00 0.00 42 1013.3
20260902202015 99 315 1.0 2.0 0.00 0.00 0.00 41 1013.4
20260902201515 99 315 2.0 5.0 0.00 0.00 0.00 39 1013.4
20260902201055 100 293 2.0 5.0 0.00 0.00 0.00 40 1013.5
20260902200515 100 315 1.0 4.0 0.00 0.00 0.00 39 1013.6
20260902200015 101 225 3.0 6.0 0.00 0.00 0.00 39 1013.7
20260902195555 104 315 2.0 7.0 0.00 0.00 0.00 35 1013.9
20260902195015 104 23 2.0 6.0 0.00 0.00 0.00 37 1014.1
20260902194517 103 23 3.0 7.0 0.00 0.00 0.00 36 1014.2
20260902194035 103 270 3.0 8.0 0.00 0.00 0.00 37 1014.1
20260902193536 104 225 3.0 7.0 0.00 0.00 0.00 38 1014.4
20260902193015 103 248 3.0 7.0 0.00 0.00 0.00 38 1014.4
20260902192515 103 203 3.0 8.0 0.00 0.00 0.00 37 1014.4
20260902192015 104 45 3.0 8.0 0.00 0.00 0.00 37 1014.6
20260902191515 101 270 2.0 5.0 0.00 0.00 0.00 39 1014.6
20260902191017 103 248 2.0 6.0 0.00 0.00 0.00 38 1014.7
20260902190517 101 315 2.0 4.0 0.00 0.00 0.00 39 1014.7
20260902190017 101 0 2.0 4.0 0.00 0.00 0.00 38 1014.8
20260902185535 101 23 2.0 5.0 0.00 0.00 0.00 41 1014.9
20260902185016 102 23 3.0 8.0 0.00 0.00 0.00 37 1014.9
20260902184537 101 293 2.0 4.0 0.00 0.00 0.00 38 1015.0
20260902184017 101 293 2.0 8.0 0.00 0.00 0.00 38 1015.2
20260902183517 100 338 3.0 7.0 0.00 0.00 0.00 39 1015.2
20260902183017 99 0 2.0 7.0 0.00 0.00 0.00 41 1015.3
20260902182517 98 315 3.0 7.0 0.00 0.00 0.00 43 1015.1
20260902182017 99 315 2.0 7.0 0.00 0.00 0.00 40 1015.4
20260902181517 100 45 2.0 5.0 0.00 0.00 0.00 40 1015.4
20260902181057 100 315 1.0 3.0 0.00 0.00 0.00 40 1015.6
20260902180517 99 315 3.0 8.0 0.00 0.00 0.00 41 1015.7
20260902180017 98 225 2.0 7.0 0.00 0.00 0.00 43 1015.9
20260902175517 97 225 3.0 7.0 0.00 0.00 0.00 43 1015.8
20260902175037 99 158 3.0 10.0 0.00 0.00 0.00 42 1016.0
20260902174517 101 113 3.0 9.0 0.00 0.00 0.00 41 1016.1
20260902174017 100 180 4.0 10.0 0.00 0.00 0.00 41 1016.2
20260902173517 99 180 3.0 6.0 0.00 0.00 0.00 42 1016.4
20260902173017 98 225 3.0 7.0 0.00 0.00 0.00 43 1016.4
20260902172517 98 248 3.0 8.0 0.00 0.00 0.00 42 1016.3
20260902172016 99 225 2.0 6.0 0.00 0.00 0.00 43 1016.5
20260902171517 98 248 3.0 6.0 0.00 0.00 0.00 42 1016.6
20260902171016 98 270 2.0 6.0 0.00 0.00 0.00 43 1016.6
20260902170517 97 225 2.0 5.0 0.00 0.00 0.00 44 1016.6
20260902170016 97 203 2.0 9.0 0.00 0.00 0.00 44 1016.7
20260902165516 97 0 2.0 5.0 0.00 0.00 0.00 45 1016.7
20260902165017 96 270 3.0 8.0 0.00 0.00 0.00 46 1016.9
20260902164516 97 225 3.0 8.0 0.00 0.00 0.00 45 1017.1
20260902164018 97 225 4.0 9.0 0.00 0.00 0.00 42 1017.0
20260902163537 96 293 3.0 9.0 0.00 0.00 0.00 45 1017.0
20260902163017 96 315 3.0 8.0 0.00 0.00 0.00 46 1017.1
20260902162557 95 270 2.0 7.0 0.00 0.00 0.00 46 1017.1
20260902162016 95 270 2.0 7.0 0.00 0.00 0.00 46 1017.0
20260902161517 94 270 4.0 8.0 0.00 0.00 0.00 47 1017.0
20260902161017 94 270 5.0 10.0 0.00 0.00 0.00 46 1016.9
20260902160516 94 293 3.0 7.0 0.00 0.00 0.00 48 1017.0
20260902160019 94 270 2.0 7.0 0.00 0.00 0.00 51 1016.9
20260902155517 93 225 3.0 8.0 0.00 0.00 0.00 51 1017.0
20260902155017 93 270 4.0 7.0 0.00 0.00 0.00 49 1017.0
20260902154516 93 248 3.0 8.0 0.00 0.00 0.00 50 1016.8
20260902154016 92 270 3.0 7.0 0.00 0.00 0.00 52 1017.0
20260902153516 92 293 2.0 6.0 0.00 0.00 0.00 53 1017.1
20260902153017 91 315 2.0 6.0 0.00 0.00 0.00 55 1017.0
20260902152516 91 248 2.0 5.0 0.00 0.00 0.00 57 1017.1
20260902152037 91 248 2.0 4.0 0.00 0.00 0.00 55 1017.1
20260902151516 90 248 3.0 7.0 0.00 0.00 0.00 55 1017.1
20260902151016 90 293 1.0 4.0 0.00 0.00 0.00 58 1017.2
20260902150516 89 293 2.0 5.0 0.00 0.00 0.00 59 1017.1
20260902150016 89 248 1.0 4.0 0.00 0.00 0.00 57 1017.1
20260902145517 88 248 1.0 4.0 0.00 0.00 0.00 58 1017.2
20260902145016 88 248 1.0 3.0 0.00 0.00 0.00 60 1017.1
20260902144516 87 248 2.0 7.0 0.00 0.00 0.00 62 1017.1
20260902144016 87 248 2.0 6.0 0.00 0.00 0.00 60 1017.3
20260902143516 87 225 4.0 8.0 0.00 0.00 0.00 61 1017.1
20260902143016 86 248 3.0 9.0 0.00 0.00 0.00 61 1017.1
20260902142516 86 225 4.0 7.0 0.00 0.00 0.00 63 1017.3
20260902142016 85 270 3.0 6.0 0.00 0.00 0.00 63 1017.3
20260902141536 85 248 2.0 9.0 0.00 0.00 0.00 64 1017.3
20260902141016 84 293 3.0 9.0 0.00 0.00 0.00 65 1017.0
20260902140516 84 270 2.0 4.0 0.00 0.00 0.00 67 1017.0
20260902140036 83 270 3.0 7.0 0.00 0.00 0.00 69 1016.9
20260902135516 82 270 2.0 6.0 0.00 0.00 0.00 69 1016.7
20260902135036 82 248 2.0 6.0 0.00 0.00 0.00 71 1016.8
20260902134517 81 248 3.0 5.0 0.00 0.00 0.00 71 1016.8
20260902134016 80 203 2.0 5.0 0.00 0.00 0.00 72 1016.8
20260902133517 80 180 2.0 6.0 0.00 0.00 0.00 74 1016.7
20260902133036 79 158 1.0 4.0 0.00 0.00 0.00 75 1016.6
20260902132516 79 158 1.0 4.0 0.00 0.00 0.00 75 1016.6
20260902132016 78 0.0 0.0 0.00 0.00 0.00 77 1016.6
20260902131517 77 0.0 3.0 0.00 0.00 0.00 78 1016.4
20260902131016 77 0.0 3.0 0.00 0.00 0.00 78 1016.5
20260902130556 77 0.0 0.0 0.00 0.00 0.00 78 1016.5
20260902130036 77 0.0 0.0 0.00 0.00 0.00 79 1016.4
20260902125516 77 0.0 1.0 0.00 0.00 0.00 79 1016.4
20260902125036 77 0.0 0.0 0.00 0.00 0.00 78 1016.2
20260902124536 77 0.0 0.0 0.00 0.00 0.00 78 1016.3
20260902124016 77 0.0 0.0 0.00 0.00 0.00 78 1016.2
20260902123516 77 0.0 0.0 0.00 0.00 0.00 77 1016.2
20260902123016 77 0.0 0.0 0.00 0.00 0.00 77 1016.1
20260902122516 77 0.0 0.0 0.00 0.00 0.00 77 1016.2
20260902122016 77 0.0 0.0 0.00 0.00 0.00 77 1016.1
20260902121516 77 0.0 0.0 0.00 0.00 0.00 77 1016.0
20260902121016 77 0.0 0.0 0.00 0.00 0.00 76 1016.0
20260902120516 77 0.0 0.0 0.00 0.00 0.00 76 1016.1
20260902120056 78 0.0 0.0 0.00 0.00 0.00 76 1016.1
20260902115516 78 0.0 0.0 0.00 0.00 0.00 76 1016.1
20260902115016 78 0.0 0.0 0.00 0.00 0.00 76 1016.1
20260902114516 78 0.0 0.0 0.00 0.00 0.00 75 1016.1
20260902114016 78 0.0 0.0 0.00 0.00 0.00 75 1016.0
20260902113516 78 0.0 1.0 0.00 0.00 0.00 75 1016.1
20260902113016 78 0.0 2.0 0.00 0.00 0.00 75 1016.0
20260902112516 78 0.0 2.0 0.00 0.00 0.00 75 1015.9
20260902112016 78 158 1.0 3.0 0.00 0.00 0.00 75 1015.7
20260902111516 78 158 1.0 3.0 0.00 0.00 0.00 75 1015.8
20260902111016 78 158 2.0 4.0 0.00 0.00 0.00 75 1015.8
20260902110516 78 158 1.0 3.0 0.00 0.00 0.00 75 1015.9
20260902110016 78 135 1.0 4.0 0.00 0.00 0.00 76 1015.8
20260902105516 78 135 1.0 2.0 0.00 0.00 0.00 77 1015.8
20260902105016 78 135 1.0 3.0 0.00 0.00 0.00 77 1015.7
20260902104516 77 113 1.0 3.0 0.00 0.00 0.00 78 1015.9
20260902104037 77 0.0 0.0 0.00 0.00 0.00 78 1016.0
20260902103537 77 0.0 0.0 0.00 0.00 0.00 78 1015.8
20260902103017 78 0.0 0.0 0.00 0.00 0.00 78 1015.9
20260902102516 78 0.0 0.0 0.00 0.00 0.00 78 1015.9
20260902102016 78 0.0 0.0 0.00 0.00 0.00 78 1015.8
20260902101516 78 0.0 0.0 0.00 0.00 0.00 77 1015.8
20260902101016 78 0.0 0.0 0.00 0.00 0.00 77 1015.8
20260902100516 78 0.0 0.0 0.00 0.00 0.00 76 1015.8
20260902100016 78 0.0 0.0 0.00 0.00 0.00 76 1015.9
20260902095516 79 0.0 0.0 0.00 0.00 0.00 76 1015.9
20260902095016 79 0.0 0.0 0.00 0.00 0.00 75 1016.0
20260902094515 79 0.0 0.0 0.00 0.00 0.00 76 1016.1
20260902094016 79 0.0 0.0 0.00 0.00 0.00 76 1016.0
20260902093516 79 0.0 0.0 0.00 0.00 0.00 75 1016.1
20260902093016 79 0.0 0.0 0.00 0.00 0.00 75 1016.2
20260902092517 79 0.0 0.0 0.00 0.00 0.00 75 1016.0
20260902092016 79 0.0 0.0 0.00 0.00 0.00 75 1016.1
20260902091516 79 0.0 0.0 0.00 0.00 0.00 75 1016.2
20260902091016 79 0.0 0.0 0.00 0.00 0.00 75 1016.1
20260902090516 79 0.0 0.0 0.00 0.00 0.00 75 1016.2
20260902090016 79 0.0 0.0 0.00 0.00 0.00 74 1016.0
20260902085516 79 0.0 3.0 0.00 0.00 0.00 74 1016.0
20260902085015 79 113 1.0 4.0 0.00 0.00 0.00 74 1016.1
20260902084516 80 0.0 1.0 0.00 0.00 0.00 73 1016.2
20260902084015 80 0.0 2.0 0.00 0.00 0.00 72 1016.2
20260902083515 80 113 1.0 2.0 0.00 0.00 0.00 72 1016.1
20260902083016 80 113 1.0 3.0 0.00 0.00 0.00 72 1016.1
20260902082536 80 113 1.0 2.0 0.00 0.00 0.00 72 1016.2
20260902082015 80 113 1.0 3.0 0.00 0.00 0.00 72 1016.3
20260902081515 80 90 1.0 4.0 0.00 0.00 0.00 71 1016.3
20260902081015 80 90 1.0 3.0 0.00 0.00 0.00 71 1016.2
20260902080536 80 90 1.0 3.0 0.00 0.00 0.00 71 1016.4
20260902080016 81 90 1.0 3.0 0.00 0.00 0.00 71 1016.6
20260902075515 81 90 1.0 2.0 0.00 0.00 0.00 70 1016.4
20260902075016 81 90 2.0 4.0 0.00 0.00 0.00 70 1016.5
20260902074515 81 90 2.0 4.0 0.00 0.00 0.00 70 1016.4
20260902074015 81 90 2.0 4.0 0.00 0.00 0.00 69 1016.5
20260902073516 81 90 1.0 3.0 0.00 0.00 0.00 69 1016.5
20260902073015 81 90 1.0 3.0 0.00 0.00 0.00 69 1016.4
20260902072517 82 90 1.0 3.0 0.00 0.00 0.00 68 1016.3
20260902072036 82 90 1.0 2.0 0.00 0.00 0.00 68 1016.4
20260902071536 82 0.0 2.0 0.00 0.00 0.00 68 1016.3
20260902071015 82 0.0 2.0 0.00 0.00 0.00 67 1016.6
20260902070535 82 0.0 0.0 0.00 0.00 0.00 67 1016.6
20260902070016 82 0.0 2.0 0.00 0.00 0.00 67 1016.5
20260902065536 82 90 1.0 4.0 0.00 0.00 0.00 66 1016.4
20260902065015 83 90 3.0 5.0 0.00 0.00 0.00 66 1016.4
20260902064516 83 90 3.0 6.0 0.00 0.00 0.00 66 1016.6
20260902064036 83 90 3.0 5.0 0.00 0.00 0.00 66 1016.7
20260902063536 83 90 2.0 5.0 0.00 0.00 0.00 66 1016.6
20260902063016 83 90 2.0 5.0 0.00 0.00 0.00 65 1016.5
20260902062516 83 90 2.0 6.0 0.00 0.00 0.00 65 1016.5
20260902062015 83 90 3.0 5.0 0.00 0.00 0.00 65 1016.6
20260902061515 84 90 3.0 5.0 0.00 0.00 0.00 65 1016.6
20260902061015 84 90 3.0 5.0 0.00 0.00 0.00 65 1016.7
20260902060515 84 113 3.0 6.0 0.00 0.00 0.00 64 1016.7
20260902060035 84 135 3.0 4.0 0.00 0.00 0.00 64 1016.6
20260902055535 84 135 2.0 4.0 0.00 0.00 0.00 64 1016.6
20260902055015 84 135 2.0 4.0 0.00 0.00 0.00 63 1016.4
20260902054535 85 135 1.0 4.0 0.00 0.00 0.00 63 1016.4
20260902054015 85 135 1.0 4.0 0.00 0.00 0.00 63 1016.4
20260902053516 85 135 2.0 5.0 0.00 0.00 0.00 63 1016.4
20260902053015 85 113 2.0 4.0 0.00 0.00 0.00 62 1016.5
20260902052515 85 113 2.0 5.0 0.00 0.00 0.00 62 1016.4
20260902052015 85 113 2.0 4.0 0.00 0.00 0.00 62 1016.4
20260902051535 85 135 3.0 8.0 0.00 0.00 0.00 62 1016.4
20260902051036 86 135 3.0 8.0 0.00 0.00 0.00 62 1016.4
20260902050515 86 135 3.0 6.0 0.00 0.00 0.00 61 1016.5
20260902050015 86 135 2.0 5.0 0.00 0.00 0.00 61 1016.4
20260902045516 86 135 3.0 9.0 0.00 0.00 0.00 61 1016.5
20260902045016 86 158 3.0 11.0 0.00 0.00 0.00 61 1016.5
20260902044556 86 113 3.0 10.0 0.00 0.00 0.00 61 1016.5
20260902044016 86 135 2.0 4.0 0.00 0.00 0.00 60 1016.4
20260902043516 87 135 2.0 5.0 0.00 0.00 0.00 60 1016.5
20260902043016 87 135 3.0 5.0 0.00 0.00 0.00 60 1016.5
20260902042536 87 135 3.0 9.0 0.00 0.00 0.00 60 1016.5
20260902042017 87 158 2.0 4.0 0.00 0.00 0.00 60 1016.4
20260902041616 87 158 2.0 6.0 0.00 0.00 0.00 59 1016.3
20260902041016 87 135 3.0 9.0 0.00 0.00 0.00 59 1016.4
20260902040516 87 135 3.0 8.0 0.00 0.00 0.00 59 1016.5
20260902040016 87 135 3.0 6.0 0.00 0.00 0.00 59 1016.4
20260902035536 87 158 2.0 6.0 0.00 0.00 0.00 58 1016.3
20260902035016 88 158 2.0 9.0 0.00 0.00 0.00 58 1016.2
20260902034516 88 135 3.0 10.0 0.00 0.00 0.00 58 1016.1
20260902034016 87 135 2.0 7.0 0.00 0.00 0.00 58 1015.9
20260902033536 88 135 2.0 5.0 0.00 0.00 0.00 58 1015.9
20260902033016 88 158 2.0 7.0 0.00 0.00 0.00 58 1015.9
20260902032516 88 158 2.0 8.0 0.00 0.00 0.00 57 1015.7
20260902032016 88 135 2.0 5.0 0.00 0.00 0.00 57 1015.7
20260902031516 88 135 2.0 5.0 0.00 0.00 0.00 57 1015.7
20260902031016 88 158 3.0 7.0 0.00 0.00 0.00 56 1015.7
20260902030516 88 158 2.0 7.0 0.00 0.00 0.00 56 1015.5
20260902030016 88 158 3.0 7.0 0.00 0.00 0.00 56 1015.3
20260902025516 89 158 4.0 9.0 0.00 0.00 0.00 55 1015.2
20260902025016 89 158 3.0 9.0 0.00 0.00 0.00 55 1015.1
20260902024516 89 135 3.0 5.0 0.00 0.00 0.00 55 1015.0
20260902024016 89 135 3.0 7.0 0.00 0.00 0.00 54 1014.9
20260902023515 89 158 2.0 6.0 0.00 0.00 0.00 54 1014.8
20260902023016 89 135 3.0 8.0 0.00 0.00 0.00 54 1014.7
20260902022516 89 135 3.0 8.0 0.00 0.00 0.00 53 1014.6
20260902022036 89 135 2.0 5.0 0.00 0.00 0.00 53 1014.6
20260902021516 90 135 2.0 4.0 0.00 0.00 0.00 52 1014.5
20260902021017 90 135 2.0 4.0 0.00 0.00 0.00 52 1014.3
20260902020516 90 135 3.0 7.0 0.00 0.00 0.00 51 1014.2
20260902020016 90 135 2.0 5.0 0.00 0.00 0.00 51 1014.2
20260902015516 90 135 2.0 5.0 0.00 0.00 0.00 50 1014.2
20260902015015 91 113 2.0 5.0 0.00 0.00 0.00 50 1014.0
20260902014516 91 113 3.0 5.0 0.00 0.00 0.00 49 1014.0
20260902014015 91 113 3.0 8.0 0.00 0.00 0.00 49 1014.1
20260902013556 92 90 4.0 9.0 0.00 0.00 0.00 48 1013.9
20260902013016 92 90 3.0 8.0 0.00 0.00 0.00 47 1013.9
20260902012515 92 90 4.0 7.0 0.00 0.00 0.00 47 1013.8
20260902012016 92 90 3.0 6.0 0.00 0.00 0.00 47 1013.9